NCC1701 KLAX-KIAD

Flight info

Callsign NCC1701
Flight time 3h 55m
Altitude 39000
Route DOTSS2 CLEEE PKE DRK CIM LBL KK45G FAM PXV J78 DACOS JARLO GIBBZ5
Aircraft B77W/H-SDE1E2E3FGHIJ2J3J4J5M1RWXY/LB1D1

Departure

Time 2026-05-07 16:53
Airport Los Angeles International Airport (KLAX)

Arrival

Time 2026-05-07 20:49
Airport Washington Dulles International Airport (KIAD)
Time Latitude Longitude Altitude Speed Heading
2026-05-07 16:39 33.93798 -118.43165 131 ft 0 kts 264°
2026-05-07 16:46 33.93798 -118.43163 131 ft 8 kts 264°
2026-05-07 16:46 33.93808 -118.43042 131 ft 0 kts 171°
2026-05-07 16:47 33.93761 -118.43032 128 ft 13 kts 171°
2026-05-07 16:48 33.93684 -118.43018 128 ft 0 kts 172°
2026-05-07 16:48 33.93682 -118.43018 128 ft 0 kts 172°
2026-05-07 16:48 33.93639 -118.43007 128 ft 12 kts 160°
2026-05-07 16:49 33.93598 -118.42903 127 ft 19 kts 89°
2026-05-07 16:49 33.93618 -118.42712 129 ft 28 kts 86°
2026-05-07 16:49 33.93630 -118.42442 131 ft 37 kts 83°
2026-05-07 16:49 33.93663 -118.42102 127 ft 45 kts 83°
2026-05-07 16:50 33.93700 -118.41738 130 ft 45 kts 82°
2026-05-07 16:50 33.93744 -118.41340 129 ft 51 kts 82°
2026-05-07 16:50 33.93790 -118.40920 131 ft 44 kts 83°
2026-05-07 16:50 33.93824 -118.40519 126 ft 52 kts 83°
2026-05-07 16:51 33.93875 -118.40063 130 ft 58 kts 82°
2026-05-07 16:51 33.93924 -118.39560 128 ft 63 kts 83°
2026-05-07 16:51 33.93969 -118.39129 126 ft 51 kts 83°
2026-05-07 16:51 33.94012 -118.38699 125 ft 43 kts 83°
2026-05-07 16:52 33.94050 -118.38343 127 ft 44 kts 83°
2026-05-07 16:52 33.94076 -118.38100 130 ft 0 kts 83°
2026-05-07 16:52 33.94078 -118.38077 128 ft 8 kts 87°
2026-05-07 16:53 33.94023 -118.38009 125 ft 15 kts 179°
2026-05-07 16:53 33.93957 -118.38307 130 ft 93 kts 264°
2026-05-07 16:53 33.93811 -118.39555 414 ft 187 kts 261°
2026-05-07 16:53 33.93622 -118.41211 1247 ft 221 kts 262°
2026-05-07 16:54 33.93437 -118.43108 2265 ft 237 kts 263°
2026-05-07 16:54 33.93224 -118.45167 2858 ft 254 kts 259°
2026-05-07 16:54 33.92427 -118.47083 3407 ft 263 kts 232°
2026-05-07 16:54 33.91248 -118.48799 4318 ft 268 kts 233°
2026-05-07 16:55 33.90044 -118.50553 5307 ft 275 kts 232°
2026-05-07 16:55 33.88800 -118.52323 6483 ft 279 kts 231°
2026-05-07 16:55 33.87527 -118.54127 7550 ft 285 kts 230°
2026-05-07 16:55 33.85944 -118.55597 8398 ft 297 kts 202°
2026-05-07 16:56 33.83901 -118.55944 9450 ft 300 kts 171°
2026-05-07 16:56 33.81863 -118.55443 10427 ft 303 kts 165°
2026-05-07 16:56 33.77502 -118.54196 11535 ft 352 kts 165°
2026-05-07 16:57 33.75013 -118.53507 11922 ft 379 kts 165°
2026-05-07 16:57 33.72438 -118.52695 12682 ft 386 kts 155°
2026-05-07 16:57 33.70190 -118.50931 13601 ft 388 kts 132°
2026-05-07 16:57 33.68586 -118.48346 14679 ft 385 kts 113°
2026-05-07 16:58 33.67619 -118.45369 15696 ft 384 kts 105°
2026-05-07 16:58 33.66775 -118.42303 16647 ft 391 kts 104°
2026-05-07 16:58 33.65895 -118.39191 17667 ft 397 kts 105°
2026-05-07 16:58 33.64977 -118.36044 18652 ft 401 kts 105°
2026-05-07 16:59 33.64317 -118.32806 19481 ft 398 kts 90°
2026-05-07 16:59 33.64297 -118.29494 20167 ft 401 kts 85°
2026-05-07 16:59 33.64355 -118.26128 20983 ft 407 kts 85°
2026-05-07 16:59 33.64408 -118.22720 21922 ft 410 kts 85°
2026-05-07 17:00 33.64443 -118.19289 22817 ft 414 kts 85°
2026-05-07 17:00 33.64462 -118.15815 23646 ft 419 kts 85°
2026-05-07 17:00 33.64470 -118.12297 24334 ft 424 kts 85°
2026-05-07 17:00 33.64470 -118.08741 25075 ft 427 kts 86°
2026-05-07 17:01 33.64466 -118.05173 25820 ft 429 kts 86°
2026-05-07 17:01 33.64460 -118.01625 26553 ft 432 kts 86°
2026-05-07 17:01 33.64454 -117.98006 27237 ft 436 kts 86°
2026-05-07 17:01 33.64448 -117.94357 27886 ft 439 kts 86°
2026-05-07 17:02 33.64440 -117.90667 28530 ft 443 kts 86°
2026-05-07 17:02 33.64433 -117.86955 29122 ft 447 kts 86°
2026-05-07 17:02 33.64423 -117.83202 29688 ft 451 kts 86°
2026-05-07 17:02 33.64445 -117.79435 30284 ft 451 kts 83°
2026-05-07 17:03 33.64897 -117.75735 30761 ft 448 kts 74°
2026-05-07 17:03 33.65624 -117.72096 31222 ft 449 kts 72°
2026-05-07 17:03 33.66402 -117.68474 31772 ft 447 kts 72°
2026-05-07 17:03 33.67165 -117.64876 32414 ft 444 kts 72°
2026-05-07 17:04 33.67900 -117.61288 33085 ft 440 kts 72°
2026-05-07 17:04 33.68606 -117.57722 33715 ft 437 kts 72°
2026-05-07 17:04 33.69291 -117.54180 34260 ft 436 kts 73°
2026-05-07 17:04 33.69973 -117.50619 34512 ft 439 kts 73°
2026-05-07 17:05 33.70653 -117.47039 34830 ft 440 kts 73°
2026-05-07 17:05 33.71335 -117.43456 35199 ft 441 kts 73°
2026-05-07 17:05 33.72019 -117.39853 35549 ft 442 kts 73°
2026-05-07 17:05 33.72703 -117.36250 35902 ft 443 kts 73°
2026-05-07 17:06 33.73156 -117.33855 36080 ft 445 kts 73°
2026-05-07 17:06 33.73842 -117.30230 36418 ft 445 kts 73°
2026-05-07 17:06 33.74529 -117.26597 36753 ft 446 kts 73°
2026-05-07 17:06 33.75157 -117.22940 37069 ft 449 kts 78°
2026-05-07 17:07 33.75284 -117.19157 37366 ft 456 kts 87°
2026-05-07 17:07 33.75148 -117.15349 37690 ft 458 kts 89°
2026-05-07 17:07 33.74976 -117.11507 37951 ft 460 kts 88°
2026-05-07 17:07 33.74833 -117.07664 38251 ft 460 kts 88°
2026-05-07 17:08 33.74732 -117.03823 38556 ft 461 kts 87°
2026-05-07 17:08 33.74652 -116.99971 38826 ft 461 kts 87°
2026-05-07 17:08 33.74494 -116.92202 38960 ft 469 kts 87°
2026-05-07 17:09 33.74315 -116.84375 38965 ft 467 kts 88°
2026-05-07 17:09 33.74130 -116.76615 38973 ft 464 kts 87°
2026-05-07 17:10 33.73945 -116.68934 38912 ft 462 kts 88°
2026-05-07 17:10 33.73754 -116.61160 38920 ft 463 kts 88°
2026-05-07 17:11 33.73562 -116.53451 38909 ft 466 kts 88°
2026-05-07 17:11 33.73361 -116.45623 38912 ft 469 kts 88°
2026-05-07 17:12 33.73152 -116.37766 38899 ft 472 kts 88°
2026-05-07 17:12 33.72939 -116.29870 38884 ft 474 kts 88°
2026-05-07 17:13 33.72719 -116.21939 38876 ft 475 kts 88°
2026-05-07 17:13 33.72494 -116.13991 38882 ft 477 kts 89°
2026-05-07 17:14 33.72529 -116.06055 38857 ft 472 kts 75°
2026-05-07 17:14 33.74493 -115.98693 38890 ft 465 kts 68°
2026-05-07 17:15 33.76676 -115.91349 38885 ft 468 kts 68°
2026-05-07 17:15 33.78800 -115.83937 38886 ft 470 kts 69°
2026-05-07 17:16 33.80873 -115.76481 38889 ft 471 kts 69°
2026-05-07 17:16 33.82936 -115.68982 38892 ft 471 kts 69°
2026-05-07 17:17 33.84979 -115.61544 38882 ft 471 kts 69°
2026-05-07 17:17 33.87033 -115.54053 38891 ft 471 kts 69°
2026-05-07 17:18 33.89098 -115.46510 38880 ft 471 kts 69°
2026-05-07 17:18 33.91130 -115.39066 38883 ft 471 kts 70°
2026-05-07 17:19 33.93170 -115.31573 38876 ft 471 kts 70°
2026-05-07 17:19 33.95206 -115.24072 38881 ft 471 kts 70°
2026-05-07 17:20 33.97244 -115.16548 38871 ft 471 kts 70°
2026-05-07 17:20 33.99271 -115.09039 38880 ft 472 kts 70°
2026-05-07 17:21 34.01299 -115.01508 38674 ft 473 kts 70°
2026-05-07 17:21 34.03315 -114.93998 38802 ft 470 kts 70°
2026-05-07 17:22 34.05320 -114.86511 38869 ft 469 kts 70°
2026-05-07 17:22 34.07312 -114.79054 38872 ft 470 kts 70°
2026-05-07 17:23 34.09316 -114.71533 38873 ft 471 kts 70°
2026-05-07 17:23 34.11350 -114.64005 38873 ft 472 kts 70°
2026-05-07 17:24 34.13483 -114.56503 38868 ft 472 kts 69°
2026-05-07 17:24 34.15622 -114.49013 38863 ft 472 kts 69°
2026-05-07 17:25 34.17743 -114.41517 38861 ft 471 kts 70°
2026-05-07 17:25 34.19849 -114.34021 38863 ft 471 kts 70°
2026-05-07 17:26 34.21944 -114.26536 38861 ft 470 kts 70°
2026-05-07 17:26 34.24032 -114.19059 38861 ft 470 kts 70°
2026-05-07 17:27 34.26117 -114.11574 38862 ft 470 kts 70°
2026-05-07 17:27 34.28197 -114.04092 38865 ft 469 kts 70°
2026-05-07 17:28 34.30271 -113.96604 38856 ft 469 kts 70°
2026-05-07 17:28 34.32322 -113.89182 38861 ft 469 kts 70°
2026-05-07 17:29 34.34383 -113.81706 38872 ft 468 kts 70°
2026-05-07 17:29 34.36439 -113.74228 38868 ft 468 kts 70°
2026-05-07 17:30 34.38490 -113.66747 38876 ft 468 kts 71°
2026-05-07 17:30 34.40534 -113.59269 38873 ft 468 kts 71°
2026-05-07 17:31 34.42573 -113.51794 38866 ft 468 kts 71°
2026-05-07 17:31 34.44608 -113.44309 38867 ft 467 kts 71°
2026-05-07 17:32 34.46638 -113.36822 38871 ft 467 kts 71°
2026-05-07 17:32 34.48661 -113.29344 38870 ft 467 kts 71°
2026-05-07 17:33 34.50680 -113.21856 38875 ft 467 kts 71°
2026-05-07 17:33 34.52691 -113.14378 38880 ft 467 kts 71°
2026-05-07 17:34 34.54697 -113.06898 38884 ft 466 kts 71°
2026-05-07 17:34 34.56700 -112.99412 38889 ft 466 kts 71°
2026-05-07 17:35 34.58696 -112.91929 38890 ft 466 kts 71°
2026-05-07 17:35 34.60686 -112.84443 38901 ft 466 kts 71°
2026-05-07 17:36 34.62674 -112.76948 38951 ft 467 kts 71°
2026-05-07 17:36 34.64648 -112.69488 38996 ft 467 kts 71°
2026-05-07 17:37 34.66630 -112.61973 39039 ft 467 kts 71°
2026-05-07 17:37 34.68607 -112.54457 39081 ft 466 kts 72°
2026-05-07 17:38 34.70577 -112.46958 39088 ft 466 kts 71°
2026-05-07 17:38 34.72594 -112.39473 39094 ft 465 kts 71°
2026-05-07 17:39 34.74628 -112.32015 39069 ft 465 kts 71°
2026-05-07 17:39 34.76654 -112.24552 39036 ft 465 kts 71°
2026-05-07 17:40 34.78660 -112.17117 39000 ft 466 kts 71°
2026-05-07 17:40 34.80676 -112.09613 38986 ft 467 kts 71°
2026-05-07 17:41 34.82689 -112.02098 39013 ft 468 kts 71°
2026-05-07 17:41 34.84701 -111.94563 39057 ft 468 kts 71°
2026-05-07 17:42 34.86708 -111.87033 39073 ft 468 kts 71°
2026-05-07 17:42 34.88710 -111.79496 39079 ft 468 kts 71°
2026-05-07 17:43 34.90712 -111.71942 39075 ft 467 kts 72°
2026-05-07 17:43 34.92702 -111.64409 39053 ft 467 kts 72°
2026-05-07 17:44 34.94675 -111.56917 39026 ft 467 kts 72°
2026-05-07 17:44 34.96654 -111.49384 39074 ft 466 kts 72°
2026-05-07 17:45 34.98628 -111.41850 39060 ft 466 kts 72°
2026-05-07 17:45 35.00597 -111.34314 39031 ft 466 kts 72°
2026-05-07 17:46 35.02563 -111.26765 38997 ft 467 kts 72°
2026-05-07 17:46 35.04528 -111.19198 38992 ft 468 kts 72°
2026-05-07 17:47 35.06494 -111.11607 39016 ft 470 kts 72°
2026-05-07 17:47 35.08463 -111.03982 39044 ft 472 kts 72°
2026-05-07 17:48 35.10433 -110.96332 39069 ft 473 kts 72°
2026-05-07 17:48 35.12401 -110.88665 39091 ft 473 kts 72°
2026-05-07 17:49 35.14368 -110.80981 39110 ft 474 kts 72°
2026-05-07 17:49 35.16318 -110.73342 39110 ft 474 kts 72°
2026-05-07 17:50 35.18275 -110.65652 39093 ft 474 kts 72°
2026-05-07 17:50 35.20229 -110.57947 39064 ft 474 kts 72°
2026-05-07 17:51 35.22177 -110.50248 39034 ft 474 kts 72°
2026-05-07 17:51 35.24120 -110.42544 38994 ft 474 kts 72°
2026-05-07 17:52 35.26057 -110.34839 38979 ft 474 kts 72°
2026-05-07 17:52 35.27992 -110.27120 38979 ft 475 kts 72°
2026-05-07 17:53 35.29599 -110.20692 38977 ft 475 kts 72°
2026-05-07 17:53 35.31846 -110.11679 38976 ft 476 kts 73°
2026-05-07 17:54 35.33462 -110.05175 38976 ft 476 kts 73°
2026-05-07 17:54 35.35376 -109.97450 38978 ft 477 kts 73°
2026-05-07 17:55 35.37303 -109.89651 38978 ft 479 kts 73°
2026-05-07 17:55 35.39230 -109.81827 38977 ft 480 kts 73°
2026-05-07 17:56 35.41157 -109.73981 38976 ft 481 kts 73°
2026-05-07 17:56 35.43083 -109.66111 38973 ft 482 kts 73°
2026-05-07 17:57 35.45008 -109.58221 38978 ft 483 kts 73°
2026-05-07 17:57 35.46927 -109.50331 38970 ft 483 kts 73°
2026-05-07 17:58 35.48842 -109.42434 38986 ft 482 kts 73°
2026-05-07 17:58 35.50748 -109.34544 39032 ft 482 kts 73°
2026-05-07 17:59 35.52650 -109.26650 39076 ft 481 kts 73°
2026-05-07 17:59 35.54531 -109.18818 39104 ft 481 kts 73°
2026-05-07 18:00 35.56417 -109.10935 39136 ft 481 kts 73°
2026-05-07 18:00 35.58300 -109.03046 39139 ft 481 kts 73°
2026-05-07 18:01 35.60180 -108.95148 39128 ft 482 kts 73°
2026-05-07 18:01 35.62055 -108.87235 39125 ft 483 kts 73°
2026-05-07 18:02 35.64865 -108.75336 39119 ft 484 kts 74°
2026-05-07 18:03 35.66742 -108.67358 39098 ft 485 kts 73°
2026-05-07 18:03 35.68601 -108.59426 39073 ft 486 kts 74°
2026-05-07 18:04 35.70471 -108.51422 39043 ft 487 kts 74°
2026-05-07 18:04 35.72338 -108.43404 39013 ft 487 kts 74°
2026-05-07 18:05 35.74198 -108.35390 39016 ft 488 kts 74°
2026-05-07 18:05 35.76058 -108.27353 39023 ft 488 kts 74°
2026-05-07 18:06 35.77911 -108.19313 39022 ft 488 kts 74°
2026-05-07 18:06 35.79758 -108.11275 39021 ft 488 kts 74°
2026-05-07 18:07 35.81601 -108.03231 39029 ft 488 kts 74°
2026-05-07 18:07 35.83442 -107.95161 39027 ft 489 kts 74°
2026-05-07 18:08 35.85278 -107.87094 39028 ft 489 kts 74°
2026-05-07 18:08 35.87098 -107.79066 39031 ft 490 kts 74°
2026-05-07 18:09 35.88939 -107.70916 39030 ft 490 kts 74°
2026-05-07 18:09 35.90753 -107.62858 39030 ft 491 kts 74°
2026-05-07 18:10 35.92577 -107.54727 39029 ft 492 kts 74°
2026-05-07 18:10 35.94399 -107.46579 39028 ft 493 kts 74°
2026-05-07 18:11 35.96217 -107.38421 39026 ft 493 kts 74°
2026-05-07 18:11 35.98033 -107.30243 39020 ft 494 kts 74°
2026-05-07 18:12 35.99846 -107.22046 39015 ft 495 kts 74°
2026-05-07 18:12 36.01656 -107.13837 39014 ft 496 kts 74°
2026-05-07 18:13 36.03464 -107.05609 39007 ft 497 kts 75°
2026-05-07 18:13 36.05269 -106.97362 39006 ft 498 kts 75°
2026-05-07 18:14 36.07072 -106.89098 39011 ft 499 kts 75°
2026-05-07 18:14 36.08862 -106.80860 39011 ft 500 kts 75°
2026-05-07 18:15 36.10659 -106.72559 39001 ft 500 kts 75°
2026-05-07 18:15 36.12454 -106.64244 39022 ft 500 kts 75°
2026-05-07 18:16 36.14244 -106.55913 39099 ft 504 kts 75°
2026-05-07 18:16 36.16057 -106.47448 39114 ft 514 kts 75°
2026-05-07 18:17 36.17893 -106.38849 39124 ft 520 kts 75°
2026-05-07 18:17 36.19741 -106.30153 39127 ft 524 kts 75°
2026-05-07 18:18 36.21590 -106.21419 39111 ft 526 kts 75°
2026-05-07 18:18 36.23442 -106.12636 39102 ft 527 kts 75°
2026-05-07 18:19 36.25288 -106.03845 39105 ft 526 kts 75°
2026-05-07 18:19 36.27124 -105.95073 39111 ft 525 kts 76°
2026-05-07 18:20 36.28948 -105.86319 39118 ft 524 kts 76°
2026-05-07 18:20 36.30763 -105.77576 39124 ft 523 kts 76°
2026-05-07 18:21 36.32570 -105.68832 39147 ft 523 kts 76°
2026-05-07 18:21 36.34373 -105.60080 39178 ft 524 kts 76°
2026-05-07 18:22 36.36158 -105.51377 39220 ft 525 kts 76°
2026-05-07 18:22 36.37953 -105.42592 39247 ft 526 kts 76°
2026-05-07 18:23 36.39748 -105.33770 39256 ft 528 kts 76°
2026-05-07 18:23 36.41538 -105.24930 39263 ft 529 kts 76°
2026-05-07 18:24 36.43330 -105.16050 39255 ft 530 kts 76°
2026-05-07 18:24 36.45117 -105.07156 39228 ft 531 kts 76°
2026-05-07 18:25 36.46902 -104.98240 39181 ft 532 kts 76°
2026-05-07 18:25 36.48680 -104.89322 39142 ft 532 kts 76°
2026-05-07 18:26 36.50326 -104.80350 39127 ft 532 kts 79°
2026-05-07 18:26 36.51707 -104.71303 39142 ft 533 kts 80°
2026-05-07 18:27 36.53062 -104.62235 39156 ft 534 kts 79°
2026-05-07 18:27 36.54458 -104.53159 39156 ft 535 kts 79°
2026-05-07 18:28 36.55874 -104.44074 39163 ft 536 kts 79°
2026-05-07 18:28 36.57294 -104.34949 39161 ft 537 kts 79°
2026-05-07 18:29 36.58695 -104.25869 39151 ft 538 kts 79°
2026-05-07 18:29 36.60099 -104.16707 39142 ft 539 kts 79°
2026-05-07 18:30 36.61497 -104.07531 39124 ft 540 kts 79°
2026-05-07 18:30 36.62890 -103.98347 39120 ft 540 kts 79°
2026-05-07 18:31 36.64277 -103.89145 39110 ft 541 kts 80°
2026-05-07 18:31 36.65660 -103.79922 39107 ft 542 kts 80°
2026-05-07 18:32 36.67038 -103.70682 39099 ft 543 kts 80°
2026-05-07 18:32 36.68410 -103.61432 39092 ft 544 kts 80°
2026-05-07 18:33 36.69779 -103.52154 39089 ft 544 kts 80°
2026-05-07 18:33 36.71131 -103.42935 39085 ft 545 kts 80°
2026-05-07 18:34 36.72489 -103.33622 39087 ft 546 kts 80°
2026-05-07 18:34 36.73841 -103.24300 39086 ft 547 kts 80°
2026-05-07 18:35 36.75188 -103.14951 39079 ft 548 kts 80°
2026-05-07 18:35 36.76531 -103.05586 39067 ft 549 kts 81°
2026-05-07 18:36 36.77866 -102.96218 39048 ft 549 kts 81°
2026-05-07 18:36 36.79197 -102.86821 39042 ft 550 kts 81°
2026-05-07 18:37 36.80522 -102.77410 39039 ft 551 kts 81°
2026-05-07 18:37 36.81841 -102.67991 39023 ft 551 kts 81°
2026-05-07 18:38 36.83156 -102.58540 39031 ft 552 kts 81°
2026-05-07 18:38 36.84455 -102.49148 39014 ft 553 kts 81°
2026-05-07 18:39 36.85756 -102.39685 39020 ft 554 kts 81°
2026-05-07 18:39 36.87054 -102.30186 39014 ft 555 kts 81°
2026-05-07 18:40 36.88346 -102.20677 39035 ft 556 kts 81°
2026-05-07 18:40 36.89632 -102.11150 39062 ft 556 kts 81°
2026-05-07 18:41 36.90703 -102.03166 39078 ft 557 kts 81°
2026-05-07 18:41 36.91977 -101.93612 39101 ft 558 kts 81°
2026-05-07 18:42 36.93245 -101.84051 39104 ft 558 kts 81°
2026-05-07 18:42 36.94507 -101.74464 39090 ft 559 kts 81°
2026-05-07 18:43 36.95763 -101.64872 39070 ft 559 kts 81°
2026-05-07 18:43 36.97013 -101.55257 39039 ft 560 kts 82°
2026-05-07 18:44 36.98248 -101.45698 39048 ft 561 kts 82°
2026-05-07 18:44 36.99492 -101.36004 39056 ft 561 kts 82°
2026-05-07 18:45 37.00714 -101.26414 39052 ft 562 kts 82°
2026-05-07 18:45 37.01937 -101.16757 39072 ft 563 kts 82°
2026-05-07 18:46 37.03154 -101.07075 39083 ft 563 kts 82°
2026-05-07 18:46 37.04366 -100.97383 39082 ft 564 kts 82°
2026-05-07 18:47 37.05410 -100.87641 39083 ft 565 kts 84°
2026-05-07 18:47 37.06275 -100.77859 39077 ft 565 kts 85°
2026-05-07 18:48 37.07135 -100.68057 39063 ft 566 kts 85°
2026-05-07 18:48 37.08025 -100.58255 39053 ft 567 kts 84°
2026-05-07 18:49 37.08928 -100.48434 39030 ft 568 kts 84°
2026-05-07 18:49 37.09825 -100.38596 39027 ft 569 kts 84°
2026-05-07 18:50 37.10712 -100.28738 39024 ft 570 kts 85°
2026-05-07 18:50 37.11590 -100.18865 39028 ft 571 kts 85°
2026-05-07 18:51 37.12460 -100.08981 39034 ft 571 kts 85°
2026-05-07 18:51 37.13325 -99.99063 39033 ft 572 kts 85°
2026-05-07 18:52 37.14181 -99.89153 39023 ft 573 kts 85°
2026-05-07 18:52 37.15026 -99.79281 39022 ft 573 kts 85°
2026-05-07 18:53 37.15868 -99.69331 39019 ft 574 kts 85°
2026-05-07 18:53 37.16702 -99.59387 39020 ft 574 kts 85°
2026-05-07 18:54 37.17530 -99.49416 39023 ft 575 kts 85°
2026-05-07 18:54 37.18348 -99.39443 39026 ft 575 kts 85°
2026-05-07 18:55 37.19160 -99.29453 39032 ft 576 kts 85°
2026-05-07 18:55 37.19960 -99.19508 39028 ft 577 kts 85°
2026-05-07 18:56 37.20758 -99.09475 39024 ft 578 kts 85°
2026-05-07 18:56 37.21548 -98.99437 39031 ft 579 kts 85°
2026-05-07 18:57 37.22331 -98.89378 39035 ft 580 kts 85°
2026-05-07 18:57 37.23107 -98.79296 39032 ft 581 kts 85°
2026-05-07 18:58 37.23874 -98.69218 39032 ft 581 kts 85°
2026-05-07 18:58 37.24635 -98.59102 39034 ft 582 kts 86°
2026-05-07 18:59 37.25388 -98.48981 39032 ft 582 kts 86°
2026-05-07 18:59 37.26132 -98.38853 39036 ft 583 kts 86°
2026-05-07 19:00 37.26863 -98.28789 39047 ft 583 kts 86°
2026-05-07 19:00 37.27592 -98.18638 39051 ft 584 kts 86°
2026-05-07 19:01 37.28313 -98.08467 39053 ft 585 kts 86°
2026-05-07 19:01 37.29026 -97.98296 39052 ft 585 kts 86°
2026-05-07 19:02 37.29731 -97.88104 39049 ft 586 kts 86°
2026-05-07 19:02 37.30428 -97.77901 39044 ft 587 kts 86°
2026-05-07 19:03 37.31118 -97.67669 39056 ft 588 kts 86°
2026-05-07 19:03 37.31799 -97.57433 39070 ft 589 kts 86°
2026-05-07 19:04 37.32474 -97.47162 39064 ft 590 kts 86°
2026-05-07 19:04 37.33139 -97.36893 39062 ft 590 kts 86°
2026-05-07 19:05 37.33797 -97.26606 39054 ft 591 kts 86°
2026-05-07 19:05 37.34446 -97.16303 39061 ft 591 kts 86°
2026-05-07 19:06 37.35083 -97.06057 39076 ft 592 kts 86°
2026-05-07 19:06 37.36032 -96.90535 39077 ft 593 kts 86°
2026-05-07 19:07 37.36652 -96.80188 39077 ft 594 kts 86°
2026-05-07 19:07 37.37265 -96.69810 39088 ft 595 kts 87°
2026-05-07 19:08 37.37870 -96.59424 39087 ft 596 kts 87°
2026-05-07 19:08 37.38466 -96.49026 39077 ft 596 kts 87°
2026-05-07 19:09 37.39054 -96.38616 39089 ft 597 kts 87°
2026-05-07 19:09 37.39632 -96.28202 39087 ft 597 kts 87°
2026-05-07 19:10 37.40202 -96.17787 39079 ft 597 kts 87°
2026-05-07 19:10 37.40763 -96.07358 39084 ft 598 kts 87°
2026-05-07 19:11 37.41311 -95.97003 39082 ft 598 kts 87°
2026-05-07 19:11 37.41854 -95.86548 39077 ft 599 kts 87°
2026-05-07 19:12 37.42389 -95.76092 39081 ft 599 kts 87°
2026-05-07 19:12 37.42915 -95.65617 39087 ft 600 kts 88°
2026-05-07 19:13 37.43433 -95.55143 39086 ft 600 kts 88°
2026-05-07 19:13 37.43941 -95.44655 39083 ft 601 kts 88°
2026-05-07 19:14 37.44441 -95.34146 39082 ft 601 kts 88°
2026-05-07 19:14 37.44931 -95.23634 39086 ft 602 kts 88°
2026-05-07 19:15 37.45413 -95.13108 39091 ft 602 kts 88°
2026-05-07 19:15 37.45886 -95.02578 39093 ft 603 kts 88°
2026-05-07 19:16 37.46350 -94.92041 39088 ft 603 kts 88°
2026-05-07 19:16 37.46803 -94.81532 39084 ft 604 kts 88°
2026-05-07 19:17 37.47249 -94.70968 39084 ft 604 kts 88°
2026-05-07 19:17 37.47685 -94.60413 39081 ft 604 kts 88°
2026-05-07 19:18 37.48112 -94.49840 39087 ft 604 kts 88°
2026-05-07 19:18 37.48530 -94.39269 39088 ft 605 kts 88°
2026-05-07 19:19 37.48937 -94.28760 39098 ft 605 kts 88°
2026-05-07 19:19 37.49336 -94.18177 39095 ft 606 kts 88°
2026-05-07 19:20 37.49727 -94.07563 39093 ft 606 kts 88°
2026-05-07 19:20 37.50125 -93.96943 39089 ft 607 kts 87°
2026-05-07 19:21 37.50736 -93.86333 39090 ft 608 kts 85°
2026-05-07 19:21 37.51445 -93.75731 39086 ft 608 kts 85°
2026-05-07 19:22 37.52118 -93.65121 39084 ft 608 kts 86°
2026-05-07 19:22 37.52743 -93.54490 39084 ft 608 kts 86°
2026-05-07 19:23 37.53348 -93.43850 39082 ft 609 kts 86°
2026-05-07 19:23 37.53947 -93.33208 39085 ft 609 kts 86°
2026-05-07 19:24 37.54542 -93.22545 39089 ft 610 kts 86°
2026-05-07 19:24 37.55127 -93.11896 39088 ft 610 kts 86°
2026-05-07 19:25 37.55705 -93.01211 39086 ft 610 kts 86°
2026-05-07 19:25 37.56268 -92.90602 39083 ft 610 kts 86°
2026-05-07 19:26 37.56824 -92.79943 39087 ft 610 kts 86°
2026-05-07 19:26 37.57371 -92.69273 39095 ft 609 kts 86°
2026-05-07 19:27 37.57818 -92.60408 39092 ft 610 kts 87°
2026-05-07 19:27 37.58348 -92.49735 39091 ft 610 kts 87°
2026-05-07 19:28 37.58868 -92.39066 39080 ft 610 kts 87°
2026-05-07 19:28 37.59378 -92.28385 39054 ft 610 kts 87°
2026-05-07 19:29 37.59879 -92.17702 39053 ft 610 kts 87°
2026-05-07 19:29 37.60370 -92.07022 39052 ft 610 kts 87°
2026-05-07 19:30 37.60851 -91.96345 39059 ft 610 kts 87°
2026-05-07 19:30 37.61323 -91.85655 39074 ft 610 kts 87°
2026-05-07 19:31 37.61786 -91.74969 39083 ft 610 kts 87°
2026-05-07 19:31 37.62238 -91.64285 39093 ft 610 kts 87°
2026-05-07 19:32 37.62682 -91.53578 39096 ft 610 kts 87°
2026-05-07 19:32 37.63115 -91.42885 39099 ft 611 kts 87°
2026-05-07 19:33 37.63537 -91.32237 39095 ft 611 kts 87°
2026-05-07 19:33 37.63952 -91.21534 39099 ft 611 kts 87°
2026-05-07 19:34 37.64357 -91.10834 39106 ft 611 kts 88°
2026-05-07 19:34 37.64752 -91.00123 39107 ft 610 kts 88°
2026-05-07 19:35 37.65137 -90.89425 39112 ft 611 kts 88°
2026-05-07 19:35 37.65513 -90.78719 39104 ft 611 kts 88°
2026-05-07 19:36 37.65879 -90.68001 39100 ft 611 kts 88°
2026-05-07 19:36 37.66235 -90.57295 39102 ft 611 kts 88°
2026-05-07 19:37 37.66583 -90.46583 39092 ft 611 kts 88°
2026-05-07 19:37 37.66920 -90.35864 39094 ft 612 kts 88°
2026-05-07 19:38 37.67256 -90.25141 39105 ft 612 kts 87°
2026-05-07 19:38 37.68168 -90.14476 39110 ft 611 kts 81°
2026-05-07 19:39 37.69434 -90.03865 39088 ft 611 kts 80°
2026-05-07 19:39 37.70695 -89.93256 39088 ft 611 kts 81°
2026-05-07 19:40 37.71890 -89.82630 39079 ft 611 kts 81°
2026-05-07 19:40 37.73041 -89.72079 39084 ft 610 kts 81°
2026-05-07 19:41 37.74189 -89.61474 39091 ft 609 kts 81°
2026-05-07 19:41 37.75335 -89.50860 39094 ft 609 kts 81°
2026-05-07 19:42 37.76471 -89.40263 39096 ft 609 kts 81°
2026-05-07 19:42 37.77598 -89.29665 39091 ft 608 kts 81°
2026-05-07 19:43 37.78714 -89.19066 39088 ft 608 kts 81°
2026-05-07 19:43 37.79819 -89.08484 39102 ft 607 kts 81°
2026-05-07 19:44 37.80914 -88.97893 39102 ft 607 kts 81°
2026-05-07 19:44 37.81999 -88.87305 39103 ft 607 kts 82°
2026-05-07 19:45 37.83075 -88.76713 39091 ft 607 kts 82°
2026-05-07 19:45 37.84144 -88.66104 39095 ft 607 kts 82°
2026-05-07 19:46 37.85200 -88.55515 39098 ft 607 kts 82°
2026-05-07 19:46 37.86248 -88.44912 39096 ft 607 kts 82°
2026-05-07 19:47 37.87286 -88.34304 39097 ft 607 kts 82°
2026-05-07 19:47 37.88313 -88.23710 39094 ft 606 kts 82°
2026-05-07 19:48 37.89329 -88.13134 39091 ft 605 kts 82°
2026-05-07 19:48 37.90335 -88.02566 39091 ft 604 kts 82°
2026-05-07 19:49 37.91329 -87.92003 39090 ft 604 kts 82°
2026-05-07 19:49 37.92310 -87.81504 39092 ft 603 kts 82°
2026-05-07 19:50 37.93281 -87.70935 39093 ft 603 kts 82°
2026-05-07 19:50 37.94217 -87.60361 39091 ft 604 kts 83°
2026-05-07 19:51 37.95137 -87.49787 39095 ft 604 kts 83°
2026-05-07 19:51 37.96053 -87.39204 39098 ft 604 kts 83°
2026-05-07 19:52 37.96963 -87.28611 39089 ft 605 kts 83°
2026-05-07 19:52 37.97865 -87.18012 39079 ft 605 kts 83°
2026-05-07 19:53 37.98755 -87.07418 39080 ft 605 kts 83°
2026-05-07 19:53 37.99637 -86.96809 39078 ft 605 kts 83°
2026-05-07 19:54 38.00503 -86.86266 39074 ft 605 kts 83°
2026-05-07 19:54 38.01366 -86.75656 39067 ft 604 kts 83°
2026-05-07 19:55 38.02219 -86.65050 39065 ft 604 kts 83°
2026-05-07 19:55 38.03061 -86.54447 39063 ft 604 kts 83°
2026-05-07 19:56 38.03894 -86.43840 39054 ft 604 kts 83°
2026-05-07 19:56 38.04716 -86.33248 39046 ft 604 kts 84°
2026-05-07 19:57 38.05531 -86.22630 39038 ft 603 kts 84°
2026-05-07 19:57 38.06333 -86.12040 39040 ft 603 kts 84°
2026-05-07 19:58 38.07127 -86.01446 39042 ft 602 kts 84°
2026-05-07 19:58 38.07904 -85.90932 39037 ft 602 kts 84°
2026-05-07 19:59 38.08682 -85.80280 39054 ft 602 kts 84°
2026-05-07 19:59 38.09441 -85.69768 39047 ft 602 kts 84°
2026-05-07 20:00 38.10196 -85.59181 39049 ft 602 kts 84°
2026-05-07 20:00 38.10995 -85.48597 39043 ft 603 kts 83°
2026-05-07 20:01 38.11864 -85.38021 39041 ft 603 kts 83°
2026-05-07 20:01 38.12724 -85.27431 39039 ft 602 kts 83°
2026-05-07 20:02 38.13558 -85.16836 39034 ft 603 kts 84°
2026-05-07 20:02 38.14375 -85.06236 39037 ft 603 kts 84°
2026-05-07 20:03 38.15184 -84.95631 39045 ft 603 kts 84°
2026-05-07 20:03 38.15985 -84.85032 39042 ft 603 kts 84°
2026-05-07 20:04 38.16777 -84.74425 39033 ft 603 kts 84°
2026-05-07 20:04 38.17559 -84.63808 39037 ft 603 kts 84°
2026-05-07 20:05 38.18332 -84.53194 39036 ft 603 kts 84°
2026-05-07 20:05 38.19094 -84.42596 39033 ft 603 kts 84°
2026-05-07 20:06 38.19847 -84.31980 39027 ft 603 kts 84°
2026-05-07 20:06 38.20588 -84.21428 39037 ft 602 kts 84°
2026-05-07 20:07 38.21320 -84.10816 39040 ft 603 kts 84°
2026-05-07 20:07 38.22041 -84.00204 39039 ft 603 kts 84°
2026-05-07 20:08 38.22756 -83.89574 39039 ft 603 kts 84°
2026-05-07 20:08 38.23460 -83.78940 39006 ft 603 kts 85°
2026-05-07 20:09 38.24156 -83.68301 38999 ft 603 kts 85°
2026-05-07 20:10 38.25176 -83.52400 39003 ft 604 kts 85°
2026-05-07 20:10 38.25849 -83.41742 39001 ft 604 kts 85°
2026-05-07 20:11 38.26511 -83.31087 39010 ft 604 kts 85°
2026-05-07 20:11 38.27164 -83.20423 38996 ft 605 kts 85°
2026-05-07 20:12 38.27809 -83.09738 38989 ft 605 kts 85°
2026-05-07 20:12 38.28443 -82.99071 39004 ft 605 kts 85°
2026-05-07 20:13 38.28962 -82.90198 38997 ft 605 kts 85°
2026-05-07 20:13 38.29579 -82.79507 38992 ft 605 kts 85°
2026-05-07 20:14 38.30186 -82.68828 38985 ft 605 kts 86°
2026-05-07 20:14 38.30783 -82.58148 38976 ft 604 kts 86°
2026-05-07 20:15 38.31370 -82.47479 38972 ft 604 kts 86°
2026-05-07 20:15 38.31947 -82.36800 38981 ft 605 kts 86°
2026-05-07 20:16 38.32515 -82.26113 38963 ft 604 kts 86°
2026-05-07 20:16 38.33071 -82.15445 38979 ft 604 kts 86°
2026-05-07 20:17 38.33616 -82.04849 38972 ft 604 kts 86°
2026-05-07 20:17 38.34155 -81.94163 38961 ft 604 kts 86°
2026-05-07 20:18 38.34685 -81.83478 38953 ft 605 kts 86°
2026-05-07 20:18 38.34982 -81.72772 38960 ft 604 kts 92°
2026-05-07 20:19 38.34637 -81.62085 38965 ft 604 kts 95°
2026-05-07 20:19 38.34206 -81.51406 38962 ft 604 kts 94°
2026-05-07 20:20 38.33823 -81.40715 38955 ft 604 kts 94°
2026-05-07 20:20 38.33468 -81.30026 38953 ft 604 kts 94°
2026-05-07 20:21 38.33108 -81.19410 38934 ft 603 kts 94°
2026-05-07 20:21 38.32727 -81.08733 38928 ft 603 kts 94°
2026-05-07 20:22 38.32335 -80.98081 38926 ft 603 kts 94°
2026-05-07 20:22 38.31935 -80.87399 38924 ft 604 kts 95°
2026-05-07 20:23 38.31524 -80.76717 38914 ft 603 kts 95°
2026-05-07 20:23 38.31317 -80.71374 38715 ft 601 kts 95°
2026-05-07 20:23 38.31113 -80.66115 38539 ft 588 kts 95°
2026-05-07 20:23 38.30911 -80.60943 38135 ft 581 kts 95°
2026-05-07 20:24 38.30710 -80.55833 37504 ft 578 kts 95°
2026-05-07 20:24 38.30608 -80.50755 36371 ft 569 kts 90°
2026-05-07 20:24 38.30838 -80.45688 34660 ft 585 kts 83°
2026-05-07 20:24 38.31406 -80.40598 34401 ft 575 kts 79°
2026-05-07 20:25 38.32270 -80.35643 33856 ft 572 kts 73°
2026-05-07 20:25 38.33294 -80.30762 33307 ft 568 kts 72°
2026-05-07 20:25 38.34334 -80.25920 32784 ft 565 kts 72°
2026-05-07 20:25 38.35348 -80.21171 32273 ft 561 kts 72°
2026-05-07 20:26 38.36348 -80.16395 31787 ft 558 kts 73°
2026-05-07 20:26 38.37327 -80.11626 31306 ft 554 kts 73°
2026-05-07 20:26 38.38293 -80.06857 30787 ft 551 kts 73°
2026-05-07 20:26 38.39244 -80.02135 30299 ft 548 kts 73°
2026-05-07 20:27 38.40186 -79.97451 29768 ft 545 kts 73°
2026-05-07 20:27 38.41123 -79.92791 29187 ft 540 kts 73°
2026-05-07 20:27 38.42051 -79.88174 28672 ft 535 kts 73°
2026-05-07 20:27 38.42971 -79.83594 28161 ft 530 kts 73°
2026-05-07 20:28 38.43881 -79.79062 27670 ft 525 kts 73°
2026-05-07 20:28 38.44793 -79.74571 27181 ft 522 kts 73°
2026-05-07 20:28 38.45705 -79.70104 26664 ft 518 kts 73°
2026-05-07 20:28 38.46604 -79.65678 26173 ft 513 kts 74°
2026-05-07 20:29 38.47482 -79.61344 25708 ft 509 kts 73°
2026-05-07 20:29 38.48374 -79.56995 25212 ft 505 kts 73°
2026-05-07 20:29 38.49265 -79.52670 24710 ft 502 kts 73°
2026-05-07 20:29 38.50145 -79.48382 24241 ft 498 kts 74°
2026-05-07 20:30 38.51014 -79.44065 23747 ft 495 kts 74°
2026-05-07 20:30 38.51847 -79.39862 23225 ft 491 kts 74°
2026-05-07 20:30 38.52677 -79.35650 22678 ft 487 kts 75°
2026-05-07 20:30 38.53502 -79.31462 22173 ft 483 kts 75°
2026-05-07 20:31 38.54318 -79.27327 21699 ft 478 kts 75°
2026-05-07 20:31 38.55123 -79.23238 21211 ft 474 kts 75°
2026-05-07 20:31 38.55927 -79.19153 20745 ft 470 kts 75°
2026-05-07 20:31 38.56718 -79.15126 20236 ft 466 kts 75°
2026-05-07 20:32 38.57506 -79.11117 19796 ft 462 kts 75°
2026-05-07 20:32 38.58284 -79.07147 19330 ft 459 kts 75°
2026-05-07 20:32 38.59043 -79.03193 18852 ft 457 kts 76°
2026-05-07 20:32 38.59722 -78.99247 18389 ft 454 kts 77°
2026-05-07 20:33 38.60363 -78.95311 17886 ft 451 kts 78°
2026-05-07 20:33 38.61000 -78.91394 17426 ft 447 kts 78°
2026-05-07 20:33 38.61638 -78.87538 16989 ft 443 kts 77°
2026-05-07 20:33 38.62276 -78.83736 16529 ft 439 kts 77°
2026-05-07 20:34 38.63034 -78.79970 16108 ft 434 kts 72°
2026-05-07 20:34 38.63924 -78.76229 15582 ft 433 kts 72°
2026-05-07 20:34 38.64775 -78.72724 15097 ft 405 kts 72°
2026-05-07 20:34 38.65599 -78.69326 14670 ft 399 kts 72°
2026-05-07 20:35 38.66419 -78.65927 14231 ft 399 kts 73°
2026-05-07 20:35 38.67230 -78.62537 13796 ft 399 kts 73°
2026-05-07 20:35 38.68039 -78.59130 13310 ft 400 kts 73°
2026-05-07 20:35 38.68847 -78.55724 12801 ft 399 kts 73°
2026-05-07 20:36 38.69648 -78.52330 12353 ft 397 kts 73°
2026-05-07 20:36 38.70442 -78.48955 11919 ft 396 kts 72°
2026-05-07 20:36 38.71236 -78.45586 11474 ft 394 kts 72°
2026-05-07 20:36 38.72019 -78.42263 11269 ft 384 kts 72°
2026-05-07 20:37 38.72794 -78.39037 11036 ft 370 kts 69°
2026-05-07 20:37 38.74006 -78.36213 10860 ft 354 kts 45°
2026-05-07 20:37 38.75657 -78.33990 10709 ft 340 kts 42°
2026-05-07 20:37 38.77276 -78.31817 10532 ft 334 kts 43°
2026-05-07 20:38 38.78844 -78.29680 10467 ft 323 kts 43°
2026-05-07 20:38 38.80344 -78.27614 10362 ft 307 kts 43°
2026-05-07 20:38 38.81780 -78.25628 9987 ft 298 kts 43°
2026-05-07 20:38 38.83181 -78.23689 9669 ft 292 kts 43°
2026-05-07 20:39 38.84571 -78.21763 9270 ft 294 kts 43°
2026-05-07 20:39 38.85737 -78.19668 8848 ft 298 kts 64°
2026-05-07 20:39 38.86367 -78.17148 8525 ft 298 kts 72°
2026-05-07 20:39 38.86965 -78.14586 8104 ft 301 kts 71°
2026-05-07 20:40 38.87596 -78.12015 7751 ft 303 kts 70°
2026-05-07 20:40 38.88236 -78.09447 7478 ft 300 kts 70°
2026-05-07 20:40 38.88874 -78.06897 7206 ft 298 kts 70°
2026-05-07 20:40 38.89502 -78.04390 7045 ft 292 kts 70°
2026-05-07 20:41 38.90118 -78.01929 6784 ft 289 kts 70°
2026-05-07 20:41 38.90732 -77.99472 6480 ft 289 kts 70°
2026-05-07 20:41 38.91342 -77.97037 6267 ft 283 kts 70°
2026-05-07 20:41 38.91935 -77.94659 6094 ft 275 kts 70°
2026-05-07 20:42 38.92506 -77.92360 6039 ft 268 kts 70°
2026-05-07 20:42 38.93071 -77.90090 6004 ft 266 kts 70°
2026-05-07 20:42 38.93635 -77.87828 6019 ft 266 kts 70°
2026-05-07 20:42 38.94200 -77.85562 6026 ft 268 kts 70°
2026-05-07 20:43 38.94769 -77.83277 6022 ft 269 kts 70°
2026-05-07 20:43 38.95340 -77.80974 6023 ft 270 kts 70°
2026-05-07 20:43 38.95903 -77.78700 6020 ft 271 kts 70°
2026-05-07 20:43 38.96453 -77.76360 6007 ft 268 kts 76°
2026-05-07 20:44 38.96445 -77.73984 5988 ft 269 kts 98°
2026-05-07 20:44 38.96146 -77.71613 5927 ft 274 kts 97°
2026-05-07 20:44 38.95870 -77.69158 5846 ft 273 kts 96°
2026-05-07 20:44 38.95614 -77.66791 5772 ft 270 kts 96°
2026-05-07 20:45 38.95326 -77.64431 5712 ft 265 kts 104°
2026-05-07 20:45 38.94479 -77.62349 5586 ft 267 kts 125°
2026-05-07 20:45 38.93390 -77.60431 5648 ft 264 kts 126°
2026-05-07 20:45 38.92291 -77.58523 5659 ft 269 kts 126°
2026-05-07 20:46 38.91146 -77.56591 5475 ft 268 kts 127°
2026-05-07 20:46 38.90058 -77.54783 4749 ft 248 kts 127°
2026-05-07 20:46 38.89025 -77.53096 3824 ft 236 kts 127°
2026-05-07 20:46 38.88128 -77.51384 2897 ft 226 kts 115°
2026-05-07 20:47 38.87589 -77.49542 2090 ft 217 kts 103°
2026-05-07 20:47 38.87634 -77.47725 1495 ft 197 kts 66°
2026-05-07 20:47 38.88268 -77.46271 1295 ft 182 kts 59°
2026-05-07 20:47 38.88893 -77.44909 1222 ft 168 kts 47°
2026-05-07 20:48 38.89750 -77.43980 885 ft 157 kts 20°
2026-05-07 20:48 38.90781 -77.43645 614 ft 153 kts 356°
2026-05-07 20:48 38.91816 -77.43632 453 ft 146 kts 353°
2026-05-07 20:48 38.92780 -77.43657 309 ft 127 kts
2026-05-07 20:49 38.93530 -77.43643 305 ft 78 kts
2026-05-07 20:49 38.93916 -77.43663 308 ft 49 kts 346°
2026-05-07 20:49 38.94223 -77.43854 308 ft 50 kts 348°
2026-05-07 20:49 38.94550 -77.43858 307 ft 25 kts
2026-05-07 20:50 38.94645 -77.43966 306 ft 19 kts 274°
2026-05-07 20:50 38.94645 -77.44144 307 ft 11 kts 235°
2026-05-07 20:50 38.94608 -77.44161 308 ft 8 kts 198°
2026-05-07 20:50 38.94586 -77.44170 307 ft 0 kts 198°